Weather History for KSNY - February, 2013

Change the Weather History Date:

Sunday, February 3, 2013

  Actual Average Record
Temperature  
Mean Temperature 36 °F 30 °F  
Max Temperature 56 °F 43 °F 70 °F (1962)
Min Temperature 15 °F 17 °F -30 °F (1989)
Degree Days  
Heating Degree Days 29 35  
Month to date heating degree days 93 105  
Since 1 July heating degree days 3796 3762  
Cooling Degree Days 0 0  
Month to date cooling degree days 0 0  
Year to date cooling degree days 0 0  
Moisture  
Dew Point 14 °F    
Average Humidity 52    
Maximum Humidity 88    
Minimum Humidity 15    
Precipitation  
Precipitation 0.00 in 0.01 in 0.26 in (2012)
Month to date precipitation 0.01 0.03  
Year to date precipitation 0.12 0.23  
Sea Level Pressure  
Sea Level Pressure 30.06 in    
Wind  
Wind Speed 11 mph (WNW)    
Max Wind Speed 18 mph    
Max Gust Speed 23 mph    
Visibility 10 miles    
Events      
T = Trace of Precipitation, MM = Missing Value Source: NWS Daily Summary

Daily Weather History Graph

Daily Weather History Graph

Search for Another Location

Airport or City:

Trip Planner

Search our weather history database for the weather conditions in past years. The results will help you decide how hot, cold, wet, or windy it might be!

Date:

Astronomy

Feb. 03, 2013 Rise Set
Actual Time 7:00 AM MST 5:11 PM MST
Civil Twilight 6:31 AM MST 5:40 PM MST
Nautical Twilight 5:58 AM MST 6:13 PM MST
Astronomical Twilight 5:26 AM MST 6:45 PM MST
Moon 12:30 AM MST (2/3) 10:50 AM MST (2/3)
Length of Visible Light 11h 09m
Length of Day
10h 11m
Waning Gibbous, 48% of the Moon is Illuminated
Feb 3
Waning Gibbous
Feb 10
New
Feb 17
First Quarter
Feb 25
Full
Mar 4
Last Quarter

Hourly Weather History & Observations

Time (MST) Temp. Windchill Dew Point Humidity Pressure Visibility Wind Dir Wind Speed Gust Speed Precip Events Conditions
12:53 AM 21.9 °F 10.4 °F 16.0 °F 78% 30.30 in 10.0 mi WSW 11.5 mph - N/A   Clear
1:53 AM 21.0 °F 9.9 °F 15.1 °F 78% 30.27 in 10.0 mi WSW 10.4 mph - N/A   Clear
2:53 AM 16.0 °F 7.4 °F 12.0 °F 84% 30.25 in 10.0 mi WNW 5.8 mph - N/A   Clear
3:53 AM 19.9 °F 8.6 °F 14.0 °F 78% 30.23 in 10.0 mi WNW 10.4 mph - N/A   Clear
4:53 AM 16.0 °F 6.3 °F 12.0 °F 84% 30.24 in 10.0 mi WNW 6.9 mph - N/A   Clear
5:53 AM 16.0 °F 5.3 °F 10.9 °F 81% 30.24 in 10.0 mi West 8.1 mph - N/A   Clear
6:53 AM 19.0 °F - 12.9 °F 77% 30.21 in 10.0 mi Calm Calm - N/A   Clear
7:53 AM 26.1 °F 18.4 °F 19.0 °F 75% 30.18 in 10.0 mi WSW 6.9 mph - N/A   Clear
8:53 AM 37.9 °F 31.5 °F 25.0 °F 60% 30.15 in 10.0 mi WSW 9.2 mph - N/A   Clear
9:53 AM 44.1 °F 37.7 °F 19.9 °F 38% 30.11 in 10.0 mi SW 12.7 mph - N/A   Clear
10:53 AM 48.0 °F - 19.0 °F 32% 30.06 in 10.0 mi SW 11.5 mph - N/A   Clear
11:53 AM 52.0 °F - 14.0 °F 22% 29.99 in 10.0 mi West 13.8 mph - N/A   Clear
12:53 PM 55.0 °F - 10.9 °F 17% 29.94 in 10.0 mi WNW 10.4 mph - N/A   Clear
1:53 PM 55.9 °F - 8.1 °F 15% 29.90 in 10.0 mi WNW 15.0 mph - N/A   Clear
2:53 PM 55.0 °F - 10.0 °F 17% 29.92 in 10.0 mi WNW 12.7 mph - N/A   Clear
3:53 PM 54.0 °F - 12.0 °F 19% 29.90 in 10.0 mi NW 10.4 mph - N/A   Clear
4:53 PM 46.9 °F - 12.9 °F 25% 29.92 in 10.0 mi WNW 11.5 mph - N/A   Clear
5:53 PM 39.9 °F 33.4 °F 12.9 °F 33% 29.95 in 10.0 mi WNW 10.4 mph - N/A   Clear
6:53 PM 39.0 °F 31.4 °F 14.0 °F 36% 29.96 in 10.0 mi NW 12.7 mph - N/A   Clear
7:53 PM 35.1 °F 26.9 °F 15.1 °F 44% 29.95 in 10.0 mi WNW 11.5 mph - N/A   Clear
8:53 PM 35.1 °F 25.9 °F 15.1 °F 44% 29.93 in 10.0 mi NW 13.8 mph - N/A   Clear
9:53 PM 33.1 °F 24.4 °F 15.1 °F 48% 29.93 in 10.0 mi WNW 11.5 mph - N/A   Clear
10:53 PM 32.0 °F 22.1 °F 15.1 °F 50% 29.94 in 10.0 mi NW 13.8 mph - N/A   Clear
11:53 PM 32.0 °F 22.1 °F 16.0 °F 52% 29.94 in 10.0 mi WNW 13.8 mph - N/A   Clear